Alturas, CA

9:58 PM PST on December 09, 2019 (GMT -0800)
Alturas Municipal

Weather History for KAAT - November, 2019

Change the Weather History Date:

Tuesday, November 19, 2019

  Actual Average Record
Temperature  
Mean Temperature 46 °F 35 °F  
Max Temperature 52 °F 47 °F 76 °F (1936)
Min Temperature 39 °F 22 °F -6 °F (1994)
Degree Days  
Heating Degree Days 20 30  
Month to date heating degree days 388 514  
Since 1 July heating degree days 1396 1457  
Cooling Degree Days 0 0  
Month to date cooling degree days 0 0  
Year to date cooling degree days 217 156  
Moisture  
Dew Point 33 °F    
Average Humidity 64    
Maximum Humidity 79    
Minimum Humidity 42    
Precipitation  
Precipitation 0.00 in 0.06 in 1.33 in (1946)
Month to date precipitation T 1.16  
Year to date precipitation 12.54 11.83  
Sea Level Pressure  
Sea Level Pressure 29.74 in    
Wind  
Wind Speed 7 mph ()    
Max Wind Speed 22 mph    
Max Gust Speed 29 mph    
Visibility 10.0 miles    
Events      
T = Trace of Precipitation, MM = Missing Value Source: Averaged Metar Reports

Daily Weather History Graph

Daily Weather History Graph

Search for Another Location

Airport or City:

Astronomy

Nov. 19, 2019 Rise Set
Actual Time 6:55 AM PST 4:39 PM PST
Civil Twilight 6:25 AM PST 5:09 PM PST
Nautical Twilight 5:51 AM PST 5:43 PM PST
Astronomical Twilight 5:18 AM PST 6:16 PM PST
Moon 11:42 PM PST (11/19) 1:08 PM PST (11/19)
Length of Visible Light 10h 43m
Length of Day
9h 43m
Waning Gibbous, 50% of the Moon is Illuminated
Nov 19
Waning Gibbous
Nov 19
Last Quarter
Nov 26
New
Dec 3
First Quarter
Dec 11
Full

Hourly Weather History & Observations

Time (PST) Temp. Windchill Dew Point Humidity Pressure Visibility Wind Dir Wind Speed Gust Speed Precip Events Conditions
12:55 AM 44.1 °F 41.5 °F 33.1 °F 65% 29.73 in 10.0 mi North 4.6 mph - N/A   Clear
1:55 AM 44.1 °F - 34.0 °F 68% 29.73 in 10.0 mi Calm Calm - N/A   Overcast
2:55 AM 50.0 °F - 37.9 °F 63% 29.70 in 10.0 mi WSW 8.1 mph - N/A   Clear
3:55 AM 46.0 °F 44.8 °F 37.0 °F 71% 29.72 in 10.0 mi East 3.5 mph - N/A   Clear
4:55 AM 46.0 °F 42.5 °F 37.9 °F 73% 29.74 in 10.0 mi Variable 6.9 mph - N/A   Overcast
5:21 AM 48.0 °F - 39.0 °F 71% 29.79 in 10.0 mi West 6.9 mph - N/A   Overcast
5:55 AM 46.0 °F 44.8 °F 37.9 °F 73% 29.73 in 10.0 mi West 3.5 mph - N/A   Mostly Cloudy
6:07 AM 44.1 °F 42.5 °F 37.9 °F 79% 29.79 in 10.0 mi NW 3.5 mph - N/A   Mostly Cloudy
6:15 AM 45.0 °F 42.6 °F 37.9 °F 76% 29.79 in 10.0 mi North 4.6 mph - N/A   Mostly Cloudy
6:55 AM 44.1 °F 40.1 °F 35.1 °F 71% 29.76 in 10.0 mi NNW 6.9 mph - N/A   Overcast
7:55 AM 44.1 °F 36.8 °F 28.9 °F 55% 29.78 in 10.0 mi NNW 16.1 mph 25.3 mph N/A   Overcast
8:27 AM 44.1 °F 36.5 °F 28.9 °F 55% 29.82 in 10.0 mi NW 17.3 mph 23.0 mph N/A   Overcast
8:55 AM 44.1 °F 40.8 °F 28.9 °F 55% 29.79 in 10.0 mi WSW 5.8 mph - N/A   Overcast
9:55 AM 45.0 °F - 30.0 °F 56% 29.80 in 10.0 mi Calm Calm - N/A   Scattered Clouds
10:55 AM 46.9 °F - 28.9 °F 50% 29.77 in 10.0 mi Calm Calm - N/A   Overcast
11:55 AM 48.9 °F - 28.9 °F 46% 29.75 in 10.0 mi NNW 9.2 mph - N/A   Mostly Cloudy
12:55 PM 50.0 °F - 28.9 °F 44% 29.73 in 10.0 mi NW 13.8 mph - N/A   Mostly Cloudy
1:55 PM 50.0 °F - 28.9 °F 44% 29.71 in 10.0 mi WNW 16.1 mph - N/A   Partly Cloudy
2:55 PM 50.0 °F - 28.9 °F 44% 29.69 in 10.0 mi NW 9.2 mph - N/A   Clear
3:55 PM 46.0 °F 43.1 °F 28.9 °F 51% 29.70 in 10.0 mi NNW 5.8 mph - N/A   Partly Cloudy
4:55 PM 43.0 °F 38.8 °F 33.1 °F 68% 29.70 in 10.0 mi NNW 6.9 mph - N/A   Clear
5:55 PM 43.0 °F 37.2 °F 34.0 °F 71% 29.71 in 10.0 mi NNW 10.4 mph - N/A   Mostly Cloudy
6:55 PM 43.0 °F 37.2 °F 34.0 °F 71% 29.72 in 10.0 mi North 10.4 mph - N/A   Mostly Cloudy
7:55 PM 42.1 °F 33.3 °F 34.0 °F 73% 29.73 in 10.0 mi North 19.6 mph 27.6 mph N/A   Partly Cloudy
8:55 PM 39.9 °F 31.4 °F 33.1 °F 77% 29.74 in 10.0 mi North 16.1 mph 23.0 mph N/A   Clear
9:55 PM 39.9 °F 30.8 °F 34.0 °F 79% 29.73 in 10.0 mi North 18.4 mph 26.5 mph N/A   Clear
10:55 PM 39.9 °F 31.4 °F 34.0 °F 79% 29.75 in 10.0 mi North 16.1 mph 23.0 mph N/A   Mostly Cloudy